Location: Clarion
(42.7316°N, 93.7330°W)
Time: 09:00:09
(UTC+00:00)

Cosmos 2150 Rocket - Pass Details

Date: 22 April 2026
Orbit: 745 x 804 km, 74.0° (Epoch: 17 May)

Event Time Altitude Azimuth Distance (km) Brightness Sun altitude
Rises 02:57:24 0° 200° (SSW) 3,173 7.0 -19.1°
Reaches altitude 10° 02:59:44 10° 202° (SSW) 2,257 6.3 -19.5°
Maximum altitude 03:04:51 83° 290° (WNW) 764 4.0 -20.2°
Drops below altitude 10° 03:10:04 10° 19° (NNE) 2,299 6.7 -20.9°
Sets 03:12:28 0° 20° (NNE) 3,238 7.5 -21.2°
